EUTELSAT 172B (42741 NORAD) Tracking and Keplerian Element Data

This shows tracking and keplerian element data for the satellite.

Feedback or suggestion? Click here.




ElementValue
Catalog42741
NameEUTELSAT 172B
Epoch Orbit591
Epoch Day316.37913507
Epoch Year2018
RAAN281.5557
Inclination0.015
Eccentricity0.000402
Argument of Perigee348.11
Mean Anonmoly90.3154
Mean Motion1.00272285
Decay Rate-8E-08
L11 42741U 17029B 18316.37913507 -.00000008 00000-0 00000-0 0 9990
L22 42741 0.0150 281.5557 0004020 348.1100 90.3154 1.00272285 5916

Live tracking and technical data element details for EUTELSAT 172B (NORAD 42741). EUTELSAT 172B can be tracked NOW for your location showing map with azimuth and elevation plus other details from your city location.

Track the satellite on the map from your city or location and see movement details for azimuth, elevation, latitude, longitude, range, height, and movement on the map or in text.







IsCatalogInMostPopularTable: catalog: 42741, numindb: 161
Update: records affected: 1



GetName: 42741 EUTELSAT 172B

Hit Count: updated at: Wed, 14 Nov 2018 16:08:34 GMT